4XDNS LLHA-LLHA

Flight info

Callsign 4XDNS
Flight time 0h 12m
Altitude 1000
Route CIRCUITS
Aircraft C172/L-VD/A

Departure

Time 2026-04-11 17:44
Airport Uri Michaeli Haifa International Airport (LLHA)

Arrival

Time 2026-04-11 17:57
Airport Uri Michaeli Haifa International Airport (LLHA)
Time Latitude Longitude Altitude Speed Heading
2026-04-11 17:36 32.81449 35.04317 24 ft 0 kts 70°
2026-04-11 17:37 32.81485 35.04319 23 ft 7 kts 319°
2026-04-11 17:38 32.81488 35.04284 24 ft 3 kts 252°
2026-04-11 17:38 32.81485 35.04273 24 ft 0 kts 248°
2026-04-11 17:42 32.81469 35.04222 25 ft 8 kts 234°
2026-04-11 17:42 32.81348 35.04213 23 ft 32 kts 166°
2026-04-11 17:43 32.80763 35.04471 21 ft 38 kts 158°
2026-04-11 17:43 32.80662 35.04538 21 ft 7 kts 39°
2026-04-11 17:43 32.80673 35.04540 21 ft 0 kts 332°
2026-04-11 17:43 32.80818 35.04459 21 ft 48 kts 337°
2026-04-11 17:44 32.81224 35.04316 120 ft 67 kts 338°
2026-04-11 17:44 32.81691 35.04206 342 ft 64 kts 337°
2026-04-11 17:44 32.82160 35.04059 561 ft 80 kts
2026-04-11 17:44 32.82580 35.04528 811 ft 94 kts 43°
2026-04-11 17:45 32.82895 35.05241 949 ft 105 kts 107°
2026-04-11 17:45 32.82347 35.05763 1083 ft 107 kts 155°
2026-04-11 17:45 32.81691 35.06133 1130 ft 106 kts 158°
2026-04-11 17:45 32.81029 35.06472 1170 ft 105 kts 162°
2026-04-11 17:46 32.80308 35.06814 1088 ft 119 kts 157°
2026-04-11 17:46 32.79539 35.07124 1043 ft 105 kts 179°
2026-04-11 17:46 32.78974 35.06895 940 ft 88 kts 220°
2026-04-11 17:46 32.78567 35.06426 728 ft 74 kts 236°
2026-04-11 17:47 32.78426 35.05930 586 ft 61 kts 303°
2026-04-11 17:47 32.78731 35.05502 561 ft 73 kts 308°
2026-04-11 17:47 32.79137 35.05103 474 ft 78 kts 333°
2026-04-11 17:47 32.79672 35.04927 370 ft 80 kts 343°
2026-04-11 17:48 32.80664 35.04545 27 ft 57 kts 323°
2026-04-11 17:48 32.81001 35.04392 78 ft 52 kts 333°
2026-04-11 17:48 32.81340 35.04244 215 ft 50 kts 326°
2026-04-11 17:49 32.82035 35.03789 482 ft 71 kts 10°
2026-04-11 17:49 32.82884 35.05049 693 ft 112 kts 73°
2026-04-11 17:50 32.82507 35.05730 886 ft 109 kts 155°
2026-04-11 17:50 32.81760 35.06024 992 ft 112 kts 154°
2026-04-11 17:50 32.81023 35.06426 957 ft 127 kts 155°
2026-04-11 17:50 32.80166 35.06823 797 ft 129 kts 162°
2026-04-11 17:51 32.79385 35.07155 618 ft 103 kts 182°
2026-04-11 17:51 32.78398 35.06061 551 ft 95 kts 270°
2026-04-11 17:51 32.78755 35.05493 462 ft 90 kts 315°
2026-04-11 17:52 32.79280 35.05060 366 ft 96 kts 334°
2026-04-11 17:52 32.79947 35.04827 254 ft 102 kts 339°
2026-04-11 17:52 32.80557 35.04586 51 ft 77 kts 333°
2026-04-11 17:52 32.80969 35.04420 54 ft 55 kts 325°
2026-04-11 17:53 32.81349 35.04209 145 ft 67 kts 336°
2026-04-11 17:53 32.81791 35.04097 376 ft 67 kts 353°
2026-04-11 17:53 32.82277 35.04296 576 ft 86 kts 38°
2026-04-11 17:53 32.82734 35.04885 681 ft 106 kts 43°
2026-04-11 17:54 32.82673 35.05663 825 ft 97 kts 162°
2026-04-11 17:54 32.82022 35.06024 872 ft 110 kts 163°
2026-04-11 17:54 32.81267 35.06338 874 ft 120 kts 161°
2026-04-11 17:54 32.80502 35.06531 846 ft 107 kts 174°
2026-04-11 17:55 32.79840 35.06829 763 ft 103 kts 149°
2026-04-11 17:55 32.79165 35.07049 705 ft 76 kts 211°
2026-04-11 17:55 32.78818 35.06666 608 ft 70 kts 225°
2026-04-11 17:55 32.78427 35.06242 537 ft 76 kts 225°
2026-04-11 17:56 32.78086 35.05781 491 ft 75 kts 246°
2026-04-11 17:56 32.78262 35.05380 527 ft 75 kts 360°
2026-04-11 17:56 32.78804 35.05313 414 ft 77 kts 326°
2026-04-11 17:56 32.79265 35.05060 351 ft 72 kts 324°
2026-04-11 17:57 32.79744 35.04899 255 ft 74 kts 336°
2026-04-11 17:57 32.80232 35.04718 88 ft 65 kts 339°
2026-04-11 17:57 32.80591 35.04562 19 ft 43 kts 328°
2026-04-11 17:57 32.80935 35.04401 24 ft 69 kts 340°
2026-04-11 17:58 32.81211 35.04614 216 ft 62 kts 112°
2026-04-11 17:58 32.81268 35.05057 242 ft 66 kts 24°
2026-04-11 17:58 32.81610 35.05471 346 ft 82 kts 54°
2026-04-11 17:58 32.81784 35.06161 458 ft 94 kts 74°
2026-04-11 17:59 32.81931 35.06868 690 ft 83 kts 69°
2026-04-11 17:59 32.82087 35.07520 894 ft 84 kts 64°
2026-04-11 17:59 32.82225 35.08216 1137 ft 80 kts 76°
2026-04-11 17:59 32.82389 35.08836 1352 ft 77 kts 68°
2026-04-11 18:00 32.82518 35.09475 1549 ft 83 kts 74°
2026-04-11 18:00 32.82675 35.10161 1708 ft 86 kts 57°
2026-04-11 18:00 32.82963 35.10850 1578 ft 100 kts 55°
2026-04-11 18:00 32.83351 35.11563 1617 ft 104 kts 47°
2026-04-11 18:01 32.83828 35.12234 1471 ft 100 kts 46°
2026-04-11 18:01 32.84118 35.12975 1635 ft 97 kts 62°
2026-04-11 18:01 32.84325 35.13791 1763 ft 107 kts 64°
2026-04-11 18:01 32.84586 35.14698 1830 ft 117 kts 69°
2026-04-11 18:02 32.85052 35.15404 1969 ft 110 kts 26°
2026-04-11 18:02 32.85596 35.15898 2350 ft 94 kts 34°
2026-04-11 18:02 32.86149 35.16347 2588 ft 89 kts
2026-04-11 18:02 32.86677 35.16197 2795 ft 80 kts 336°
2026-04-11 18:03 32.87193 35.16078 1837 ft 108 kts 335°
2026-04-11 18:03 32.87927 35.15552 2099 ft 70 kts 315°
2026-04-11 18:03 32.88415 35.15403 1968 ft 102 kts 44°
2026-04-11 18:03 32.88265 35.15676 1622 ft 103 kts 96°
2026-04-11 18:04 32.88245 35.15497 1378 ft 106 kts 32°
2026-04-11 18:04 32.88533 35.16198 1396 ft 84 kts 41°
2026-04-11 18:04 32.88742 35.15865 1363 ft 74 kts 248°
2026-04-11 18:04 32.88239 35.15986 1137 ft 102 kts 143°
2026-04-11 18:05 32.88338 35.16478 919 ft 96 kts 317°
2026-04-11 18:05 32.87936 35.16250 973 ft 93 kts 160°
2026-04-11 18:05 32.87469 35.16051 794 ft 71 kts 263°
2026-04-11 18:05 32.87181 35.15686 1003 ft 57 kts 196°
2026-04-11 18:06 32.86698 35.15528 943 ft 78 kts 188°
2026-04-11 18:06 32.86143 35.15592 989 ft 94 kts 157°
2026-04-11 18:06 32.85659 35.15735 1163 ft 83 kts 243°
2026-04-11 18:06 32.85323 35.15304 1464 ft 71 kts 227°
2026-04-11 18:07 32.84979 35.14821 1690 ft 77 kts 240°
2026-04-11 18:07 32.84695 35.14237 1837 ft 90 kts 246°
2026-04-11 18:07 32.84415 35.13647 2009 ft 84 kts 248°
2026-04-11 18:07 32.84013 35.13046 1988 ft 104 kts 224°
2026-04-11 18:08 32.83384 35.12617 2096 ft 105 kts 207°
2026-04-11 18:08 32.82742 35.12226 2081 ft 93 kts 218°
2026-04-11 18:08 32.82270 35.11736 1919 ft 97 kts 231°
2026-04-11 18:08 32.81850 35.11085 1885 ft 93 kts 243°
2026-04-11 18:09 32.81489 35.10436 1861 ft 95 kts 241°
2026-04-11 18:09 32.81025 35.09887 1660 ft 93 kts 219°
2026-04-11 18:09 32.80508 35.09396 1338 ft 99 kts 211°
2026-04-11 18:09 32.80008 35.08870 978 ft 94 kts 217°
2026-04-11 18:10 32.79610 35.08280 719 ft 89 kts 229°
2026-04-11 18:10 32.79235 35.07757 572 ft 76 kts 220°
2026-04-11 18:10 32.78877 35.07252 548 ft 83 kts 223°
2026-04-11 18:10 32.78541 35.06697 528 ft 81 kts 228°
2026-04-11 18:11 32.78291 35.06101 450 ft 70 kts 262°
2026-04-11 18:11 32.78588 35.05724 416 ft 62 kts 302°
2026-04-11 18:11 32.78917 35.05370 429 ft 62 kts 325°
2026-04-11 18:11 32.79310 35.05054 373 ft 74 kts 329°
2026-04-11 18:12 32.79796 35.04881 237 ft 69 kts 332°
2026-04-11 18:12 32.80294 35.04690 88 ft 75 kts 322°
2026-04-11 18:12 32.80674 35.04521 23 ft 46 kts 330°
2026-04-11 18:12 32.81013 35.04352 40 ft 61 kts 319°
2026-04-11 18:13 32.81431 35.04166 122 ft 68 kts 322°
2026-04-11 18:13 32.81892 35.03997 241 ft 71 kts 322°
2026-04-11 18:13 32.82392 35.04057 387 ft 89 kts 21°
2026-04-11 18:13 32.82857 35.04574 379 ft 102 kts 34°
2026-04-11 18:14 32.83144 35.05303 425 ft 106 kts 100°
2026-04-11 18:14 32.82651 35.05794 604 ft 96 kts 161°
2026-04-11 18:14 32.82021 35.06084 707 ft 100 kts 151°
2026-04-11 18:14 32.81420 35.06555 770 ft 107 kts 139°
2026-04-11 18:15 32.80703 35.06891 696 ft 119 kts 159°
2026-04-11 18:15 32.79949 35.07204 630 ft 110 kts 173°
2026-04-11 18:15 32.79288 35.07157 657 ft 77 kts 208°
2026-04-11 18:15 32.78882 35.06833 535 ft 71 kts 217°
2026-04-11 18:16 32.78482 35.06438 436 ft 80 kts 212°
2026-04-11 18:16 32.78332 35.05983 346 ft 54 kts 313°
2026-04-11 18:16 32.78657 35.05649 345 ft 63 kts 300°
2026-04-11 18:16 32.79008 35.05316 357 ft 66 kts 313°
2026-04-11 18:17 32.79426 35.05078 286 ft 72 kts 323°
2026-04-11 18:17 32.79886 35.04889 223 ft 66 kts 313°
2026-04-11 18:17 32.80281 35.04725 75 ft 60 kts 327°
2026-04-11 18:17 32.80629 35.04557 20 ft 40 kts 319°
2026-04-11 18:18 32.80908 35.04420 23 ft 48 kts 335°
2026-04-11 18:18 32.81173 35.04304 22 ft 32 kts 343°
2026-04-11 18:18 32.81375 35.04218 24 ft 25 kts 336°
2026-04-11 18:18 32.81468 35.04223 25 ft 12 kts 69°
2026-04-11 18:19 32.81492 35.04313 23 ft 10 kts 88°
2026-04-11 18:19 32.81512 35.04379 22 ft 0 kts 67°